KAL926 EHAM-RKSI

Flight info

Callsign KAL926
Flight time N/A
Altitude 33000
Route ARNEM L620 OMELO DCT EVIKU DCT OMIFU DCT TIBLA DCT MAKAL DCT TEKLA DCT TIVON DCT PITOK DCT BADOR DCT ROMAG DCT RILAS DCT EBILO DCT REBLA DCT SOBSA DCT LAPKA DCT DIRAL DCT DINRO N743 UDROS UM859 RERVA DCT OSDIP UM859 KARDE DCT ATVAM DCT IFEMU DCT REBLO/N0483F350 M11 MATAL T916 BALUN/K0902F350 T916 PIGAL M610 RULAD/K0902S1070 A343 POSOT B215 IGBIS/K0898S1130 B215 FKG W188 LIKMI DCT DKO W69 HUR B339 LADIX W34 VAPGU W100 MUDOT DCT UNSEK A326 DONVO G597 AGAVO/N0480F390 Y644 REBIT REBIT2A
Aircraft B77W/H-SDE1E2E3FGHIJ2J3J4J5M1RWXY/LB1D1

Departure

Time 2026-04-30 19:20
Airport Amsterdam Airport Schiphol (EHAM)

Arrival

Time N/A
Airport Incheon International Airport (RKSI)
Time Latitude Longitude Altitude Speed Heading
2026-04-30 18:37 52.31268 4.76601 4 ft 0 kts 123°
2026-04-30 19:07 52.31283 4.76564 4 ft 3 kts 123°
2026-04-30 19:07 52.31292 4.76542 6 ft 2 kts 123°
2026-04-30 19:08 52.31297 4.76491 4 ft 2 kts 67°
2026-04-30 19:08 52.31297 4.76481 4 ft 1 kts 27°
2026-04-30 19:08 52.31302 4.76486 4 ft 0 kts 27°
2026-04-30 19:13 52.31403 4.76595 4 ft 19 kts 32°
2026-04-30 19:13 52.31462 4.76656 4 ft 9 kts 31°
2026-04-30 19:14 52.31519 4.76648 4 ft 9 kts 321°
2026-04-30 19:14 52.31543 4.76546 4 ft 12 kts 276°
2026-04-30 19:14 52.31543 4.76379 4 ft 18 kts 268°
2026-04-30 19:14 52.31537 4.76139 4 ft 23 kts 266°
2026-04-30 19:15 52.31526 4.75873 4 ft 23 kts 266°
2026-04-30 19:15 52.31507 4.75356 3 ft 14 kts 269°
2026-04-30 19:15 52.31505 4.75200 3 ft 14 kts 266°
2026-04-30 19:16 52.31497 4.75042 4 ft 14 kts 265°
2026-04-30 19:16 52.31490 4.74885 4 ft 14 kts 265°
2026-04-30 19:16 52.31498 4.74700 4 ft 8 kts 307°
2026-04-30 19:17 52.31548 4.74672 4 ft 8 kts 347°
2026-04-30 19:17 52.31649 4.74695 4 ft 6 kts 40°
2026-04-30 19:17 52.31664 4.74757 4 ft 6 kts 85°
2026-04-30 19:18 52.31664 4.74774 4 ft 0 kts 88°
2026-04-30 19:19 52.31668 4.74977 1 ft 33 kts 88°
2026-04-30 19:20 52.31697 4.75705 3 ft 97 kts 85°
2026-04-30 19:20 52.31749 4.77154 2 ft 155 kts 86°
2026-04-30 19:20 52.31902 4.81090 964 ft 165 kts 89°
2026-04-30 19:21 52.31975 4.82995 1472 ft 169 kts 90°
2026-04-30 19:21 52.31973 4.87108 1615 ft 195 kts 112°
2026-04-30 19:22 52.30769 4.91366 1846 ft 217 kts 110°
2026-04-30 19:22 52.29803 4.95311 2396 ft 226 kts 114°